Theta_e
313 313 316 320 320 321 323 325 321 320 320 314 314 316 315 318 318 318 319 319 323 324 320 323 330 328 326 325 325 323 324 328 325 322 324 334 334 337 338 335 338 340 340 340 338 336 336 337 337 338 338 334 328 323 320 320 320 325 331 331 332 331 330 330 331 332 333 334 334 335 334 331 330 330 331 330 330 330 330 329 330 331 332 331 331 331 330 329 329 329 329 329 329 329 329 329 328
315 315 317 319 319 322 324 324 320 317 316 311 315 317 315 318 318 320 321 320 322 319 317 324 329 326 323 321 322 323 328 328 326 329 332 334 335 337 337 336 339 340 340 340 339 338 337 337 337 338 337 334 328 324 320 321 320 322 330 333 332 332 331 331 332 332 334 335 334 336 334 332 331 331 331 330 329 329 329 329 330 331 331 331 332 332 331 330 328 329 329 329 329 329 329 329 328
319 318 320 321 321 323 323 323 318 314 312 310 313 318 317 318 320 320 320 319 320 318 319 325 327 324 321 321 322 323 327 326 326 333 335 335 337 337 336 337 339 340 340 339 339 339 339 337 337 338 337 335 329 325 321 321 321 321 328 333 332 332 332 332 333 333 334 335 335 335 334 333 331 330 331 330 329 329 329 330 331 332 333 332 332 333 332 330 328 329 329 329 329 329 329 329 329
321 321 322 324 324 323 324 322 320 315 311 311 312 317 318 318 321 318 318 320 319 319 322 326 326 323 321 322 323 322 325 329 330 334 335 336 338 337 336 338 338 339 339 339 339 339 340 338 338 338 337 336 331 326 321 321 322 322 326 332 333 332 332 331 331 333 334 334 335 335 334 334 332 331 330 329 329 329 329 330 332 332 332 332 332 332 331 329 327 328 329 329 329 329 330 329 329
322 321 321 324 325 323 323 321 320 316 313 313 312 316 318 318 319 316 318 320 319 318 320 325 327 323 322 325 324 324 328 332 332 334 336 337 338 337 336 338 338 338 339 339 339 340 340 338 337 337 337 336 333 327 322 321 323 324 325 328 331 332 332 331 331 332 334 333 334 335 335 334 331 331 330 329 329 328 328 329 331 331 331 331 331 331 330 329 328 328 328 328 328 329 328 327 328
320 320 319 321 322 320 321 318 317 316 316 317 315 316 316 316 318 318 319 319 317 315 317 321 324 323 325 326 325 327 331 333 334 334 336 337 337 336 336 338 338 338 338 338 339 340 340 337 337 337 337 337 334 328 323 322 322 324 324 323 327 331 332 332 331 332 334 334 334 334 334 333 331 331 330 329 328 328 328 329 330 330 330 330 331 331 330 329 328 328 328 328 328 327 327 327 328
320 321 321 321 320 320 321 317 316 317 316 316 316 316 315 315 317 320 320 319 317 315 314 316 320 322 324 325 327 330 330 333 335 335 336 337 337 336 337 337 338 338 338 338 339 341 340 337 337 338 337 337 335 330 324 322 322 323 322 319 323 329 332 333 332 332 333 333 334 334 333 332 330 329 329 329 328 328 328 328 329 329 330 330 331 331 330 329 329 329 329 329 327 326 327 328 328
320 321 322 323 321 321 321 317 317 318 315 312 314 314 315 315 317 320 321 319 319 316 314 316 319 321 322 322 328 331 330 333 334 334 335 337 337 336 337 337 338 337 338 338 339 340 339 337 337 338 337 337 336 332 327 323 322 323 322 320 320 324 329 332 333 333 332 332 333 333 333 332 330 329 328 328 327 327 328 328 328 329 330 330 329 329 329 329 329 330 329 329 327 326 327 328 328
319 319 321 322 320 320 318 317 317 317 315 313 313 314 314 314 315 320 320 318 317 316 317 318 318 317 321 322 326 330 331 333 333 334 335 337 337 336 337 337 338 337 338 338 338 340 338 337 337 338 337 337 336 333 329 324 323 323 323 322 320 320 323 326 330 332 332 332 332 331 332 331 330 329 328 327 327 327 327 327 327 328 328 328 328 329 329 328 328 328 328 328 328 327 327 328 328
319 319 321 323 319 317 315 315 316 316 315 314 314 314 314 313 314 319 320 318 315 316 317 316 316 315 321 323 325 329 332 333 333 335 336 337 337 336 337 336 338 337 338 338 338 339 338 337 337 337 337 337 336 335 331 326 324 323 323 323 322 320 319 321 326 330 331 331 331 330 330 329 329 329 328 327 327 327 327 327 327 327 327 328 328 328 328 328 328 328 327 327 327 327 327 328 327
320 319 321 321 316 314 313 314 316 316 316 315 315 313 313 313 315 319 318 316 314 316 316 314 316 318 321 322 324 328 330 333 335 336 336 338 337 336 337 337 338 337 338 338 337 338 339 338 337 337 337 337 335 335 333 327 325 324 324 324 324 322 319 319 321 325 327 328 329 329 329 329 328 328 328 327 327 327 327 327 327 327 328 328 328 328 328 327 327 326 326 326 327 327 327 327 327
319 321 322 319 316 316 315 315 315 317 318 317 317 314 313 313 316 318 317 317 315 316 317 315 318 320 321 320 323 326 329 334 336 336 337 337 337 337 337 337 337 337 338 338 337 338 339 339 338 337 337 337 335 335 334 329 327 325 325 324 324 323 321 320 319 320 321 322 324 326 327 326 328 327 327 327 327 327 327 327 327 327 328 328 328 328 328 327 325 325 325 326 326 327 327 327 327
320 322 322 318 317 318 317 317 316 317 318 319 318 314 312 314 317 317 317 316 315 317 317 315 318 319 319 320 323 326 331 336 336 336 337 337 337 337 336 337 337 337 337 338 338 337 339 339 338 338 337 336 335 335 335 331 328 326 326 325 325 324 323 322 320 319 318 318 318 321 323 323 327 326 325 327 326 327 327 326 327 327 327 329 328 328 328 326 324 324 325 325 326 327 327 327 326
321 322 322 319 316 318 318 317 316 315 316 318 315 312 312 314 315 315 316 316 316 316 313 313 317 319 318 319 322 325 332 336 336 337 337 337 337 336 337 337 337 336 336 337 337 337 338 339 339 338 337 337 336 335 335 333 329 327 327 326 325 325 325 323 321 320 318 317 314 315 318 320 324 323 322 327 327 326 326 326 327 327 328 329 329 328 327 324 323 324 325 325 326 326 326 326 326
320 319 322 319 317 317 317 317 318 315 314 318 314 311 313 312 311 313 315 316 316 312 310 312 315 317 317 318 321 324 333 335 335 337 336 337 336 337 337 336 337 336 336 336 336 337 338 339 339 338 338 337 337 337 336 334 332 328 327 327 326 325 325 325 323 321 320 319 316 312 313 317 323 322 321 325 327 326 326 326 326 327 328 328 328 327 325 324 323 323 324 325 326 326 325 325 325
318 320 322 320 317 317 317 316 317 315 315 316 311 310 315 312 309 312 312 312 314 310 312 314 314 317 315 317 323 326 333 335 334 337 336 337 336 336 337 336 336 336 336 336 335 336 337 339 338 339 338 338 338 338 337 336 334 331 328 328 328 327 326 326 325 323 321 320 318 313 310 314 320 322 320 322 326 326 325 326 326 327 328 327 327 326 325 324 324 323 323 324 325 325 325 324 324
317 321 320 318 317 317 317 317 317 315 315 314 309 311 317 314 309 310 308 309 313 312 313 314 315 318 317 320 322 324 332 334 335 336 336 337 336 336 336 336 336 336 336 335 335 335 337 338 338 339 338 338 338 337 337 337 336 333 331 329 328 328 327 326 326 325 323 321 320 316 310 313 319 322 321 320 324 326 325 326 326 327 326 326 326 325 325 323 323 323 321 321 323 323 324 324 324
319 321 318 316 318 318 318 318 316 315 316 314 311 313 317 316 311 310 310 312 313 312 313 313 314 318 321 321 321 324 330 333 335 336 337 337 336 337 337 336 336 336 336 335 335 335 336 337 338 338 338 338 338 338 337 337 336 335 334 332 330 330 328 326 326 326 325 323 321 319 316 315 318 323 321 319 324 326 326 326 326 326 325 324 324 324 323 323 323 322 318 319 320 320 321 322 323
319 320 317 317 320 318 316 316 314 315 315 313 312 312 314 315 313 311 313 314 313 313 315 313 314 317 321 322 322 326 330 333 336 336 337 337 337 337 337 337 336 336 336 335 335 335 335 336 337 338 337 338 338 338 337 337 337 335 336 335 333 332 330 328 329 328 328 327 322 321 322 317 314 319 318 317 323 325 326 326 326 326 324 323 323 323 322 322 323 319 316 318 317 318 319 320 321
317 318 318 319 320 316 313 314 313 312 312 313 312 310 312 312 311 312 314 315 313 314 315 314 314 314 320 324 324 328 331 334 336 337 337 337 338 337 337 337 336 336 336 335 336 335 335 335 336 336 336 337 337 337 337 337 337 336 336 336 335 334 332 330 331 330 330 329 325 322 324 318 310 313 313 314 321 324 325 325 326 326 325 322 322 324 323 321 320 318 317 317 317 318 319 320 321
316 316 318 318 318 316 313 311 310 309 310 313 312 310 312 310 310 312 314 315 314 315 315 315 316 314 319 325 325 329 331 334 336 337 337 337 338 337 338 337 337 337 336 336 335 335 335 335 335 336 336 335 337 337 337 337 336 336 336 336 336 335 333 331 331 331 331 330 328 325 324 320 314 311 310 316 323 326 326 325 325 325 325 324 323 325 324 321 319 318 318 318 318 318 319 319 321
316 314 315 316 316 316 312 308 309 308 309 311 311 312 313 310 310 312 314 314 315 315 313 314 314 312 319 325 326 329 331 333 335 337 337 337 337 337 337 337 337 337 337 337 336 336 335 336 335 335 336 335 336 337 336 336 336 336 336 336 336 335 334 332 331 331 331 330 329 328 324 321 318 314 310 315 324 326 326 326 326 325 325 325 323 324 324 322 319 318 318 318 319 319 319 319 320
316 314 311 311 312 314 310 307 309 307 310 311 311 312 311 311 312 310 312 315 314 311 309 310 309 311 321 326 326 329 330 332 334 335 336 336 337 336 337 336 336 336 337 337 336 337 336 336 336 335 336 336 335 336 336 335 335 335 335 335 335 335 335 333 332 330 330 330 330 329 326 323 321 318 312 313 319 324 325 325 325 324 325 324 322 323 322 320 317 317 318 318 319 319 318 319 320
315 315 311 310 309 311 308 307 307 306 310 311 309 310 310 313 313 308 310 314 312 308 307 308 309 314 323 326 326 329 331 332 333 334 335 336 336 336 336 336 336 336 336 336 336 336 336 336 337 336 336 336 336 336 336 335 335 335 335 335 335 335 335 334 333 331 330 330 329 329 328 325 323 322 318 314 316 321 323 323 323 322 323 322 320 320 319 318 317 317 318 318 319 319 318 319 319
315 314 311 309 308 308 305 305 306 306 308 307 308 311 311 310 310 308 311 313 311 307 307 312 316 320 323 324 326 330 331 332 332 333 333 334 335 334 334 335 335 335 335 335 336 336 336 336 336 337 337 336 336 336 336 336 335 335 335 334 334 334 334 334 334 332 331 330 329 329 328 327 325 324 321 318 318 320 321 321 321 321 320 319 318 318 317 317 317 317 318 318 319 319 318 318 319
314 312 310 309 308 307 306 306 306 307 307 307 310 312 310 307 307 311 313 311 308 306 309 315 319 322 323 323 326 329 330 331 331 331 332 332 332 332 332 333 333 334 334 335 335 335 335 335 336 336 337 336 336 337 337 337 336 336 335 334 334 333 334 334 334 333 331 330 329 329 329 328 327 325 323 321 319 318 320 321 321 319 318 318 317 318 317 317 317 317 318 318 318 319 319 318 318
311 310 310 309 309 307 308 309 307 308 308 308 312 312 309 307 308 313 313 307 306 308 312 316 318 319 322 324 325 328 329 330 331 330 331 331 331 331 331 331 332 333 334 335 335 334 334 335 335 335 336 336 336 336 336 337 337 336 336 335 334 334 333 333 333 333 332 330 330 329 328 328 328 327 325 323 321 319 319 322 321 318 318 318 317 317 317 317 317 317 318 318 319 319 319 317 318
310 310 311 309 309 309 309 310 308 309 310 308 311 311 310 308 310 314 311 305 306 309 312 315 317 317 320 323 324 326 328 328 329 329 330 330 330 330 330 331 331 332 334 335 335 334 334 334 334 334 335 336 335 335 335 335 336 336 336 335 335 334 333 333 333 333 332 331 330 329 328 328 328 328 327 325 324 321 320 322 321 319 319 319 318 318 318 317 316 317 317 318 318 318 319 318 317
310 311 313 311 311 312 309 310 309 310 311 308 310 311 311 311 312 313 308 304 306 308 310 312 315 317 318 320 322 324 326 326 327 327 328 329 330 330 330 331 331 332 333 335 335 334 334 333 333 334 334 335 335 335 334 334 334 335 336 336 335 334 334 333 332 333 332 332 330 329 329 328 328 328 328 327 326 323 322 322 322 322 323 321 320 319 318 318 317 317 317 317 318 318 318 318 317
310 311 313 312 312 313 310 309 309 310 310 307 309 309 312 314 313 310 306 305 307 309 311 311 312 314 314 316 318 321 325 325 326 326 328 329 331 331 331 332 332 333 333 334 334 334 333 333 333 334 333 334 334 334 335 333 332 332 334 335 335 334 334 333 332 332 332 332 331 330 329 328 327 328 328 328 326 324 323 323 323 323 324 325 324 321 319 318 318 318 317 317 317 317 317 317 317
312 311 313 313 312 312 310 309 310 311 309 307 309 309 311 313 311 308 305 306 309 310 312 311 310 310 311 312 314 317 321 324 325 326 327 328 329 330 330 331 331 332 333 333 333 333 333 333 333 333 333 334 333 333 333 333 332 331 332 333 333 334 334 334 333 332 332 332 332 331 330 329 329 329 329 328 328 327 325 324 324 323 324 324 325 324 322 319 319 319 318 318 317 317 317 317 317
311 310 312 313 312 311 311 309 309 312 310 308 309 309 311 313 310 306 305 307 309 311 312 312 311 310 309 310 310 312 315 319 322 323 325 326 327 327 327 328 329 329 330 331 332 332 332 332 332 332 333 333 333 333 332 332 331 331 332 332 332 333 333 333 333 333 333 332 332 332 332 331 330 330 329 329 328 328 327 327 327 327 326 325 324 325 323 320 319 319 318 318 318 317 317 317 317
311 311 313 313 311 311 311 309 308 310 311 310 310 310 311 312 311 307 305 307 309 310 312 312 312 312 310 310 310 310 311 312 315 317 319 322 323 323 323 324 325 326 326 328 330 330 330 331 331 331 332 333 332 332 331 331 331 331 331 331 332 332 332 332 332 333 333 333 333 332 332 331 331 331 330 330 329 328 328 328 328 328 328 327 325 324 322 320 319 319 318 318 318 317 317 316 316
312 312 313 313 311 309 310 311 309 308 311 312 311 311 311 312 312 309 307 307 308 310 312 313 313 312 312 311 311 310 311 311 312 313 313 315 318 319 320 321 322 323 323 324 327 328 328 329 329 329 330 332 331 331 331 331 332 332 332 331 331 330 331 331 331 331 332 332 333 333 333 332 331 331 331 331 330 329 329 329 328 328 327 327 326 325 323 322 320 319 318 318 318 317 316 316 316
312 312 312 311 311 310 310 311 310 308 311 312 312 311 311 312 312 311 310 308 309 311 312 312 312 312 312 312 312 311 311 312 313 313 311 310 311 312 315 317 319 321 322 322 324 325 327 328 328 327 328 329 330 330 331 331 331 331 332 332 332 331 330 330 330 330 330 330 330 331 332 332 332 331 331 330 330 331 330 330 329 329 329 328 327 325 324 323 322 320 318 317 317 317 316 315 315
313 313 313 312 311 310 310 310 308 308 312 312 312 312 312 313 312 313 312 309 309 311 311 311 311 312 313 312 312 313 312 313 313 311 309 309 309 309 310 311 313 315 318 320 322 323 325 326 326 327 327 328 329 329 329 330 331 331 330 330 331 331 330 330 331 332 332 332 331 331 331 331 331 331 331 331 331 331 331 329 329 329 329 328 327 326 325 324 323 321 319 317 317 316 316 315 314
313 313 313 314 313 310 310 310 307 307 312 313 313 313 312 313 313 313 313 311 310 311 311 312 313 313 314 315 314 314 314 314 311 308 307 308 308 308 308 308 308 309 311 315 319 321 322 324 325 325 326 327 327 328 328 328 329 330 330 329 330 330 330 329 330 331 333 333 333 332 332 332 332 332 332 332 331 331 331 329 328 328 329 327 326 327 327 325 323 321 319 317 316 315 315 315 313
313 312 312 312 313 311 309 310 308 306 310 313 311 311 313 313 313 313 313 312 312 312 313 313 314 314 314 315 315 315 314 312 310 308 308 307 307 307 307 308 308 307 308 310 313 316 320 322 323 324 324 325 326 327 327 328 328 329 329 329 329 329 329 330 329 329 329 330 330 329 329 331 333 332 332 332 332 331 331 329 329 328 327 328 327 326 325 324 323 322 319 316 314 313 313 313 313
313 313 312 311 312 311 309 309 308 306 310 313 311 311 313 314 314 314 314 313 313 314 313 313 313 314 313 314 314 314 313 312 311 310 309 308 306 306 306 306 307 307 307 308 309 311 315 318 320 322 323 323 324 325 326 327 327 327 327 327 327 327 328 329 329 330 330 330 330 329 329 330 331 331 330 331 331 331 331 329 329 327 326 327 327 325 323 323 322 322 319 316 313 312 311 311 312
314 314 312 312 313 312 310 311 309 306 308 310 312 312 314 314 313 313 312 310 311 310 308 309 309 311 312 313 313 311 310 311 311 310 310 309 306 306 305 305 305 306 306 307 307 308 310 312 315 318 321 321 322 323 324 325 326 326 326 326 326 326 326 326 326 327 329 330 331 332 332 331 329 328 328 329 329 329 330 330 330 328 326 326 326 325 323 322 323 322 320 317 313 312 311 311 311
315 316 314 314 314 313 312 311 309 307 307 308 311 312 313 315 313 313 311 307 307 306 306 307 308 308 308 308 308 308 308 309 309 310 310 309 308 307 306 305 305 304 305 306 307 307 308 309 310 313 316 318 319 320 321 323 325 324 325 325 325 325 325 325 324 325 325 326 328 329 329 329 329 328 328 329 329 329 330 330 330 329 326 325 325 326 324 323 323 322 321 318 315 313 312 311 311
314 315 315 315 313 313 313 312 311 311 311 309 310 309 310 313 314 313 312 309 309 308 308 309 309 308 308 308 309 309 308 307 307 308 308 308 307 307 306 307 306 305 305 306 306 307 308 308 308 310 311 314 316 318 319 322 323 323 324 324 324 324 324 324 324 324 325 325 325 326 326 328 329 330 330 330 331 330 330 330 329 328 327 325 326 326 325 322 321 321 321 320 318 317 315 312 310
312 314 315 315 314 317 316 315 314 312 311 310 309 310 309 312 313 314 312 312 312 311 311 311 310 310 311 311 312 311 310 309 307 306 306 305 306 307 310 310 308 306 305 305 306 307 307 308 308 309 310 312 314 316 318 321 322 323 323 323 323 324 324 324 324 324 324 325 325 325 325 326 327 328 328 328 328 328 328 327 327 327 326 326 327 326 325 323 321 321 322 322 320 318 315 312 311
313 314 315 315 316 320 319 316 314 312 311 311 311 313 310 309 312 314 311 311 312 312 311 312 312 312 312 311 312 311 311 310 308 307 306 307 308 310 312 311 309 308 307 307 307 307 308 308 309 310 311 312 313 316 319 321 321 322 323 323 323 323 323 324 324 324 324 324 324 325 324 324 325 325 325 325 325 325 325 326 327 327 327 328 328 327 326 324 322 321 321 321 320 317 314 313 312
315 311 312 315 315 319 318 315 313 311 311 311 313 313 310 309 313 314 309 310 312 312 312 313 313 312 311 311 311 310 310 308 306 306 309 311 311 311 311 310 310 309 309 309 308 309 309 310 311 312 313 314 315 317 319 320 321 322 323 323 323 323 323 323 323 323 323 323 323 323 323 323 324 324 324 323 323 323 324 326 328 328 327 327 326 326 326 324 322 321 321 321 319 317 316 315 314
312 308 311 313 314 315 315 314 312 310 311 312 313 311 309 309 314 314 310 310 312 312 312 313 312 311 310 310 309 309 310 310 308 308 310 312 311 310 310 310 310 311 311 311 310 311 311 312 313 314 315 316 317 318 319 320 321 322 322 322 322 322 322 322 322 321 321 321 321 321 322 322 323 323 323 323 323 323 323 325 326 327 327 326 325 326 325 324 323 323 322 321 320 319 318 316 314
309 311 313 313 313 313 312 311 310 310 312 311 309 308 308 308 312 315 312 310 311 312 312 312 312 311 311 309 308 308 308 310 310 310 311 311 309 309 310 310 311 312 312 312 313 313 313 314 315 316 317 317 318 319 319 320 321 321 322 322 322 322 322 322 321 320 320 321 321 321 321 321 322 322 323 323 323 322 322 322 323 324 325 325 325 325 324 324 324 324 322 321 320 319 318 315 314
310 315 314 313 313 312 312 310 310 312 312 308 305 305 308 308 310 313 311 310 309 311 313 312 312 312 311 310 308 307 307 309 310 311 311 311 311 311 311 311 311 312 313 313 314 314 314 315 316 316 317 317 318 319 319 320 320 321 321 321 321 321 322 322 321 320 320 320 320 320 320 320 321 322 322 322 322 321 321 321 321 321 322 323 323 324 323 322 322 321 322 321 320 319 318 316 314
311 314 313 313 313 312 313 313 312 313 311 305 304 305 308 309 310 310 310 309 308 310 313 313 312 312 311 311 310 308 308 309 311 312 312 313 313 313 312 312 312 311 312 313 313 314 314 314 315 315 315 315 316 316 317 318 318 319 320 320 320 320 320 320 320 320 320 319 319 319 318 318 319 319 319 319 319 319 319 319 319 319 319 319 319 320 320 320 319 319 319 320 320 319 318 317 316
311 314 313 313 314 313 314 312 310 310 308 304 304 306 309 310 310 311 310 310 309 309 310 312 311 310 309 309 310 310 309 310 312 312 312 312 313 312 312 311 310 311 311 312 312 312 312 313 313 313 313 313 313 313 314 314 314 315 315 316 317 317 317 317 317 318 318 317 317 317 317 317 317 316 316 317 316 316 316 316 316 316 316 316 316 316 316 316 317 317 317 317 318 318 318 317 317
313 317 314 312 313 313 313 311 310 310 309 305 304 307 311 310 309 310 309 309 309 307 306 307 307 306 306 308 308 309 310 310 312 312 312 312 311 310 310 309 309 309 310 310 310 311 311 311 311 311 311 311 311 311 312 312 312 312 312 313 313 313 314 314 314 315 315 315 315 315 315 315 315 315 315 315 315 314 314 314 314 314 314 314 314 314 314 314 314 315 315 315 315 315 316 316 316
312 312 312 312 313 312 309 307 308 308 308 308 307 308 311 311 310 310 308 307 309 308 306 308 308 307 307 309 309 310 311 311 312 312 311 311 310 309 309 308 308 308 308 309 309 310 310 310 310 310 310 311 310 311 311 310 311 311 311 311 311 311 312 312 312 312 312 313 313 313 313 313 313 313 313 313 313 313 313 313 313 314 314 314 313 313 313 313 313 313 314 314 314 314 314 315 315
310 310 310 310 313 314 309 305 304 305 308 310 309 310 311 309 309 311 309 309 311 310 308 309 310 310 310 312 311 312 312 311 312 312 311 310 309 309 309 308 307 306 307 307 308 309 310 310 310 311 310 311 311 310 311 311 311 310 310 311 311 311 311 311 311 311 311 311 311 311 311 312 312 312 312 312 313 313 313 313 313 313 313 313 313 313 313 312 312 312 312 313 313 313 313 313 313
311 312 312 309 310 312 310 308 307 306 309 310 308 310 309 308 309 310 310 311 312 311 309 308 309 310 311 312 312 313 313 311 311 310 309 310 310 309 307 305 305 306 306 307 308 309 309 310 310 310 310 310 310 310 310 310 310 310 310 310 310 310 310 311 311 310 310 310 310 311 311 311 311 311 311 311 312 312 312 312 312 312 312 311 311 311 311 311 311 311 311 311 311 312 311 311 311
311 312 312 310 311 311 308 309 310 309 310 311 308 306 307 309 309 309 310 311 312 311 310 309 308 310 312 312 312 312 311 311 310 309 309 310 309 308 306 305 305 306 306 307 307 308 308 309 309 309 309 309 309 309 309 309 310 310 310 310 309 310 310 310 310 310 310 310 310 310 310 310 310 310 310 310 310 310 310 311 311 311 310 310 310 310 310 310 310 310 310 310 310 310 310 310 310
308 308 309 310 312 311 310 309 310 310 310 310 309 306 307 311 310 310 310 311 311 311 311 310 309 311 312 312 312 313 312 312 311 309 309 309 308 306 305 305 306 306 307 307 307 308 308 308 308 308 308 308 308 309 309 309 309 309 309 309 309 309 309 309 309 309 309 309 309 309 309 309 309 309 309 309 309 309 309 309 309 309 309 309 309 309 309 309 309 309 309 309 309 309 309 308 309
308 308 309 310 310 309 310 309 307 309 309 309 309 308 308 310 310 310 310 310 310 311 313 312 310 311 312 312 313 314 312 312 310 309 308 308 307 305 304 305 305 306 307 307 307 308 308 308 308 308 308 308 308 308 308 308 309 309 309 309 309 309 308 308 308 308 307 307 308 308 308 308 308 308 308 308 308 308 308 308 308 308 308 308 308 308 308 308 308 308 308 308 308 308 308 307 307
312 309 310 312 311 310 311 311 308 307 308 307 308 308 309 312 310 309 309 308 307 309 312 314 311 310 312 313 314 313 312 310 308 307 307 307 307 305 304 304 305 306 306 306 307 307 307 308 308 308 308 308 308 308 308 308 309 309 309 308 308 308 307 307 307 306 306 306 307 307 307 307 306 307 307 307 307 307 307 307 307 307 307 307 307 307 307 306 306 307 307 307 307 306 306 306 306
Wind_Speed
1 3 5 4 3 2 0 1 1 1 1 1 1 1 3 2 2 3 6 5 3 4 2 2 7 7 2 2 3 4 4 3 4 2 3 4 8 16 11 14 18 16 16 13 14 15 15 14 13 11 11 9 9 9 10 11 13 13 13 12 12 13 13 14 13 12 11 11 12 13 14 15 15 16 16 15 14 15 15 16 15 15 16 17 16 17 17 16 16 15 16 17 17 16 16 15 14
2 4 5 4 2 2 1 1 2 1 2 2 2 0 3 3 2 5 8 5 2 5 3 3 6 5 0 4 2 2 1 4 5 3 4 7 13 15 10 15 18 16 16 14 14 14 13 13 12 12 10 10 8 9 10 11 12 13 13 12 12 13 13 13 12 12 12 11 12 13 15 16 16 16 15 15 15 15 15 15 15 14 15 16 16 16 16 16 16 16 16 16 16 16 16 16 15
3 4 5 4 1 1 1 1 2 1 3 2 3 2 4 5 5 4 6 4 5 6 5 5 5 3 2 2 2 2 1 3 1 2 5 10 13 13 12 16 18 16 15 14 14 14 13 14 12 12 11 9 8 9 10 11 12 12 14 13 12 13 12 12 12 13 12 11 12 13 15 15 15 16 15 15 15 15 15 15 15 15 15 16 15 15 15 15 15 15 15 15 15 15 15 15 15
4 5 5 3 1 1 1 1 1 2 2 1 1 4 5 5 5 5 6 5 6 6 6 6 5 2 4 3 1 1 1 3 2 2 6 10 10 14 16 18 19 16 15 13 14 14 13 14 13 12 11 9 8 8 9 10 11 11 13 13 12 12 12 12 11 11 11 12 11 11 14 15 15 15 15 15 15 15 15 15 15 15 16 15 14 14 14 14 14 14 14 14 14 14 14 14 15
3 4 4 4 2 1 0 0 0 2 0 1 1 4 5 3 5 7 6 6 6 3 4 6 4 2 2 2 2 1 2 3 3 3 7 10 10 16 18 19 19 16 15 13 14 14 13 14 13 12 11 9 8 8 9 10 10 11 12 12 13 12 12 12 11 11 10 11 10 10 15 15 14 14 14 14 14 14 14 14 14 15 15 14 14 14 14 14 14 14 14 14 14 14 13 14 14
4 4 3 1 1 1 1 1 1 1 2 2 1 3 3 4 6 9 8 7 4 2 2 4 2 1 2 1 1 1 2 2 5 6 8 11 12 16 18 19 18 17 16 14 14 13 13 15 13 13 11 10 8 8 9 9 10 10 10 12 13 13 12 11 11 11 10 11 11 11 14 14 13 13 13 13 13 13 14 14 14 14 13 13 14 14 14 14 14 14 14 13 13 13 14 14 14
4 4 3 3 3 1 2 1 1 1 2 2 2 4 2 5 6 10 11 7 3 0 1 2 0 2 2 2 2 1 2 0 4 6 8 11 14 16 18 19 18 17 16 14 14 12 13 15 14 13 11 10 8 8 9 9 10 10 10 11 12 13 12 11 11 11 9 10 11 11 12 12 12 13 13 13 13 13 13 14 14 13 13 13 13 13 14 13 13 13 13 13 12 12 13 13 13
2 1 1 1 2 1 1 0 1 1 1 1 2 2 2 4 6 10 11 6 3 3 2 2 2 3 1 1 1 3 2 2 3 6 9 12 16 17 18 19 18 17 15 15 13 12 14 15 14 12 11 10 9 7 8 9 9 10 10 10 10 11 12 12 12 11 10 9 9 9 10 10 11 13 13 12 12 12 13 13 13 12 13 13 13 13 13 13 13 12 12 12 12 12 12 12 12
2 1 2 2 2 1 1 1 0 0 0 1 2 1 1 3 5 7 10 5 2 4 3 4 4 3 3 3 1 4 3 3 5 8 12 13 16 17 18 18 18 18 16 15 14 12 14 15 14 12 12 10 9 7 7 8 9 9 10 9 9 9 10 12 13 11 10 10 9 8 8 8 9 11 12 12 12 12 12 12 11 11 11 11 12 12 12 12 12 11 11 11 11 11 12 12 11
1 1 1 2 2 2 2 1 1 1 1 1 2 2 1 5 5 4 8 5 3 3 3 3 3 2 3 4 2 3 4 5 7 10 12 15 17 17 17 17 17 17 16 14 14 13 14 15 14 13 12 11 9 7 7 8 9 9 9 9 9 8 9 11 12 11 11 11 9 8 8 8 9 10 11 13 12 11 11 12 12 11 11 11 11 11 11 11 11 10 10 10 10 10 11 11 11
1 1 1 2 3 3 2 1 1 1 1 2 2 2 2 6 6 4 5 4 3 2 4 4 3 4 4 2 2 3 5 7 9 11 13 15 16 16 17 17 16 16 15 14 14 14 14 14 14 14 13 12 10 8 7 7 8 9 8 8 8 8 8 9 10 10 10 11 10 9 9 9 9 10 12 13 12 11 11 12 12 11 11 11 11 10 10 10 10 10 10 9 9 9 9 10 10
2 1 2 3 2 1 1 1 1 0 1 2 3 3 3 6 7 6 6 4 4 3 5 6 1 3 5 2 2 4 5 8 9 12 14 15 16 16 16 15 16 15 14 14 14 14 14 14 14 14 13 13 11 9 7 7 8 8 8 7 7 7 7 7 7 7 8 8 9 9 8 9 9 11 13 13 12 12 11 11 11 11 10 10 10 9 9 9 9 9 9 9 9 9 9 9 10
2 1 3 3 0 0 1 0 1 1 2 3 4 4 4 7 6 6 7 4 4 5 4 5 1 1 3 2 3 4 7 10 11 12 14 15 15 15 14 14 16 15 13 13 14 15 14 14 14 13 14 13 12 10 8 8 7 8 8 7 6 6 6 6 6 6 6 6 7 7 7 8 9 10 14 15 12 11 11 11 10 10 9 9 9 9 8 7 8 9 9 9 9 9 9 10 10
1 1 1 3 1 0 1 0 1 2 2 4 4 6 5 4 2 2 6 6 5 3 1 2 1 2 2 2 3 4 8 11 12 12 13 14 14 14 13 14 15 15 13 13 14 14 14 14 14 14 14 13 12 11 9 8 8 8 8 7 7 6 5 5 5 5 5 5 5 6 7 8 9 9 14 16 13 11 11 11 11 10 9 9 9 8 7 7 8 9 9 9 8 9 9 10 9
1 1 1 3 2 1 2 1 1 2 2 5 3 6 5 1 1 2 4 4 3 3 2 1 1 2 1 2 3 4 10 13 14 14 14 14 13 13 13 13 13 13 13 14 15 15 15 14 14 15 14 13 12 11 10 9 9 8 8 8 7 6 5 5 5 5 4 4 4 5 6 8 9 8 13 16 13 12 11 10 10 10 9 8 7 7 7 7 8 8 8 8 8 8 9 9 8
1 1 1 3 2 1 2 1 1 2 2 5 3 4 6 3 0 2 0 3 1 3 1 2 1 2 3 2 3 5 9 14 17 15 13 14 13 13 13 12 13 12 12 13 15 15 15 15 14 15 14 14 13 12 11 10 9 9 9 8 8 7 6 5 4 4 4 4 4 5 6 7 8 8 10 13 14 13 11 9 10 10 8 7 6 6 7 7 8 7 8 8 7 7 7 7 7
1 2 2 3 3 2 3 4 3 1 3 5 4 6 7 5 2 1 1 2 1 3 1 1 2 2 3 2 3 4 9 15 18 15 14 15 14 14 13 13 13 12 12 13 15 15 16 16 15 15 14 14 13 13 12 11 10 9 9 9 8 8 7 6 5 4 4 4 4 4 5 6 7 7 8 11 14 12 11 9 9 10 8 7 6 6 7 7 7 7 7 8 6 6 6 6 5
2 3 4 4 3 2 4 6 3 1 3 6 7 8 7 6 6 3 3 3 1 2 3 2 1 2 1 2 1 5 11 15 18 16 16 17 15 15 15 14 15 14 13 13 14 15 16 16 15 15 15 15 14 14 13 12 12 10 9 9 9 9 8 8 6 6 5 5 5 5 5 6 7 7 8 11 13 11 10 10 9 9 7 6 6 5 6 6 7 6 7 7 5 5 5 6 5
1 1 3 4 3 2 2 4 4 1 3 6 6 5 4 4 6 5 4 4 2 4 5 4 5 5 5 2 1 8 12 14 18 19 19 20 18 18 17 16 16 16 15 15 15 16 16 16 15 15 16 16 14 14 13 13 12 11 10 10 10 9 9 9 8 7 6 6 6 6 6 7 7 8 8 11 13 11 11 11 10 8 6 5 5 4 5 6 6 6 7 7 5 4 5 6 6
0 2 4 4 4 2 1 2 3 1 3 4 6 4 3 2 4 5 4 2 3 7 6 5 8 9 8 6 6 11 12 14 19 19 19 20 20 19 19 18 18 18 17 16 15 15 16 16 15 16 17 16 15 15 14 14 13 12 11 11 10 9 9 10 8 8 7 7 7 7 7 7 8 9 8 9 12 12 11 11 10 9 7 6 6 4 4 5 4 5 7 6 5 4 5 6 7
2 2 3 5 5 3 3 3 2 2 1 2 6 5 4 3 2 4 5 4 4 7 7 7 9 7 9 8 9 14 15 16 19 19 19 20 20 20 19 18 17 16 16 15 15 16 16 17 16 16 17 17 16 16 16 15 14 13 12 11 11 9 9 10 10 8 8 8 9 9 9 8 8 9 9 10 11 10 10 9 9 8 6 7 6 4 4 4 3 5 7 6 6 5 5 6 7
3 1 2 4 4 3 4 2 3 3 2 3 7 6 5 5 2 4 6 6 3 1 1 4 5 1 6 9 11 15 17 18 20 20 21 21 21 20 19 18 17 16 16 16 16 16 17 17 17 16 17 17 17 16 16 17 17 15 13 13 12 11 11 11 11 9 9 9 9 9 11 10 9 10 11 12 11 10 10 9 8 8 7 7 7 5 4 4 5 6 7 7 7 6 6 6 7
3 2 1 2 1 1 4 2 3 3 5 7 7 4 4 6 4 1 6 9 1 5 4 3 3 2 5 10 13 15 17 19 21 23 24 23 23 22 19 18 18 18 18 18 17 17 17 18 18 17 17 18 18 17 16 18 18 17 15 16 15 12 13 12 11 11 10 10 9 9 11 12 11 12 12 13 12 10 10 10 10 10 9 9 8 7 7 6 7 8 8 8 7 7 6 7 8
2 4 3 2 2 2 2 2 3 3 5 6 3 3 4 6 4 2 6 10 3 5 3 3 2 2 5 9 12 14 17 19 22 23 23 22 21 20 18 17 17 18 18 19 19 18 18 19 19 18 17 18 18 18 18 18 18 18 18 19 17 15 15 13 11 11 10 10 11 10 11 14 13 13 13 14 13 12 11 11 12 12 12 12 12 10 10 9 8 10 9 8 8 8 8 8 9
3 3 5 3 2 3 2 2 3 2 2 3 4 5 2 1 1 1 8 8 3 3 2 2 3 5 5 7 11 13 15 17 18 19 21 19 17 17 18 17 17 19 20 20 20 19 19 19 20 18 19 19 18 17 18 19 18 19 19 20 20 18 18 15 12 11 11 10 12 11 11 14 15 14 14 15 14 13 13 12 12 14 14 14 14 13 12 11 10 11 11 10 10 10 9 10 10
1 3 5 5 3 3 2 3 3 2 2 3 6 5 2 1 1 5 7 1 2 0 1 3 4 4 5 7 9 11 13 15 16 17 19 18 17 18 20 19 18 19 20 20 20 20 19 19 20 20 19 19 17 16 17 18 18 19 20 20 21 21 20 17 14 13 11 11 11 13 13 13 16 16 15 16 16 15 14 12 12 15 16 15 14 14 14 13 12 13 12 12 12 12 12 11 11
4 7 7 6 4 2 1 3 3 2 2 1 4 5 2 2 1 5 2 3 2 1 3 4 4 6 6 6 7 10 11 13 15 14 16 18 19 21 21 21 21 20 19 19 20 20 19 19 20 21 20 19 19 18 18 19 19 19 20 20 21 23 23 20 18 15 12 12 12 12 14 14 15 18 18 18 18 17 16 13 14 16 17 16 16 16 15 14 14 14 14 14 14 14 14 13 13
7 10 9 6 4 5 2 4 3 1 2 2 2 5 2 3 3 4 3 3 2 1 3 4 5 5 5 6 6 7 9 10 12 13 16 20 21 21 22 23 23 21 20 20 19 18 19 20 20 20 20 20 21 21 21 22 21 20 19 20 21 23 24 23 21 19 15 14 13 13 15 13 14 19 21 20 19 19 19 16 16 18 17 17 17 17 16 15 15 15 16 16 15 15 15 15 15
6 5 6 4 3 4 2 1 1 2 2 1 1 3 3 6 8 3 4 1 2 0 3 4 5 5 4 5 5 6 8 9 11 15 18 20 19 19 22 22 21 20 20 19 18 18 18 19 19 20 20 21 22 22 21 23 24 22 20 20 21 23 24 24 23 23 20 17 15 16 16 14 16 20 22 22 21 21 21 20 19 19 18 18 19 18 18 16 16 17 17 17 16 16 17 17 17
3 1 2 4 4 3 2 2 1 1 2 2 3 4 5 8 8 2 4 2 1 3 4 4 4 4 4 5 5 6 8 11 14 17 18 17 17 17 19 19 19 20 17 17 19 20 19 18 18 19 21 22 23 24 22 21 24 26 25 23 22 23 24 25 24 24 24 22 21 22 20 19 20 21 22 22 22 22 22 22 22 21 20 19 19 20 20 19 19 19 19 19 19 19 20 20 20
4 3 1 2 5 3 3 2 2 3 2 2 4 6 4 4 4 2 3 1 2 5 5 4 3 3 4 4 5 7 8 13 15 17 17 16 16 16 18 19 19 20 18 19 21 21 20 19 18 18 20 21 22 23 23 21 21 24 25 26 26 25 24 26 26 25 26 25 26 26 25 23 23 22 22 22 23 24 24 24 23 23 23 22 21 22 23 23 22 22 22 21 22 22 23 24 23
2 4 4 2 3 2 2 2 2 1 1 1 4 6 4 2 2 3 2 1 2 6 5 4 4 4 4 4 6 6 7 11 14 16 17 17 18 20 23 24 23 24 24 24 22 21 21 20 19 18 19 20 21 22 23 22 21 21 21 22 25 26 26 27 27 26 26 27 28 27 27 25 24 23 22 22 23 24 25 25 25 25 25 24 24 24 25 26 26 25 24 24 24 25 26 26 25
1 3 4 4 4 3 2 2 2 2 1 3 4 3 2 1 1 3 1 1 1 4 5 5 5 5 5 4 5 6 6 7 11 15 18 19 23 27 29 29 28 28 28 27 23 24 24 22 21 21 20 20 20 20 21 22 22 22 21 21 21 23 24 26 26 25 26 27 28 29 29 28 27 27 25 24 23 23 23 25 27 27 27 27 27 28 27 28 28 28 27 27 27 26 27 28 27
4 2 1 2 3 4 3 3 1 2 1 4 4 4 4 1 2 3 3 2 1 4 6 5 5 4 4 4 4 6 5 7 9 11 16 20 25 29 30 30 29 28 29 28 26 26 25 23 23 23 22 20 19 19 19 20 20 21 21 20 21 22 23 22 22 22 23 25 26 28 28 28 28 29 28 27 27 26 25 27 30 30 30 30 30 30 30 29 30 29 29 29 30 28 27 28 28
8 6 3 2 2 3 3 2 2 1 2 5 4 5 10 7 6 6 4 4 4 7 6 5 6 5 5 4 5 6 6 8 8 7 12 18 22 26 28 29 29 29 29 29 28 27 25 24 24 23 22 21 20 19 19 19 18 18 20 19 19 21 22 22 23 24 26 27 27 26 26 27 27 27 28 29 31 31 29 30 33 32 31 31 32 32 31 31 31 32 32 31 32 32 30 28 27
9 7 4 5 4 3 1 2 1 1 4 7 8 7 10 10 10 9 4 5 4 8 6 6 6 6 6 6 6 6 7 8 5 6 12 14 16 19 21 23 25 27 27 27 27 27 28 27 25 23 21 20 19 19 19 19 19 18 21 23 23 23 21 22 23 25 27 29 29 28 26 27 29 29 29 31 32 32 29 28 31 33 33 31 32 33 33 34 35 35 35 34 34 32 31 30 29
6 5 3 3 4 3 1 1 2 1 4 6 6 7 9 11 11 11 6 3 5 9 8 8 7 7 6 6 7 7 8 6 2 6 11 10 12 13 15 17 19 21 23 25 26 28 29 28 27 27 23 20 20 21 20 20 21 20 20 23 26 26 24 23 23 22 22 22 24 27 27 28 30 30 30 31 31 30 30 30 30 33 35 33 32 33 33 35 36 36 35 35 34 32 31 32 31
5 5 5 3 2 2 1 0 2 1 3 3 1 5 10 12 12 11 7 6 9 10 9 10 9 8 7 7 8 7 5 3 3 7 9 9 11 11 12 15 16 18 20 22 24 26 27 27 28 29 26 23 21 21 20 21 21 20 19 20 21 22 23 24 25 24 24 23 24 27 28 28 27 26 28 31 32 32 33 34 33 33 36 35 34 33 33 35 36 35 35 34 32 32 32 32 32
4 3 4 3 2 3 2 1 2 1 2 1 1 4 9 10 11 11 9 9 9 6 6 7 6 7 7 7 7 5 5 5 5 6 7 8 11 12 13 13 15 17 18 20 21 23 24 26 28 27 26 27 24 21 20 20 20 19 18 16 16 17 18 20 21 22 24 26 27 29 29 28 25 23 24 27 30 32 32 33 34 35 35 34 34 32 31 34 35 34 35 34 30 29 28 29 32
3 2 4 3 2 2 2 4 3 0 1 1 1 4 8 8 8 10 8 6 6 4 5 6 6 9 10 7 5 5 7 8 7 7 7 7 9 11 12 13 15 16 17 19 20 21 23 25 27 25 26 28 26 25 22 18 17 17 16 16 16 16 16 17 17 19 22 24 25 26 27 28 27 25 25 26 29 32 33 31 31 33 32 31 31 30 31 34 36 36 36 35 31 27 27 29 33
1 3 4 2 4 4 1 4 5 1 1 1 2 5 6 4 5 7 3 1 3 3 4 6 6 7 8 7 6 7 8 9 8 8 6 5 6 8 10 11 14 16 17 19 19 20 21 21 23 23 25 25 25 26 22 16 16 16 17 19 19 18 18 18 18 19 21 23 23 23 26 28 28 27 27 28 30 30 31 30 28 29 29 28 28 30 33 35 37 38 36 35 34 32 30 30 32
2 5 5 2 6 6 3 6 5 3 3 0 2 5 4 1 3 5 0 1 3 1 2 5 3 3 4 5 6 5 6 7 8 8 6 5 6 6 7 8 11 14 16 17 17 18 18 18 18 19 21 22 22 24 21 16 16 16 18 20 20 19 19 20 21 20 18 18 19 21 21 23 23 24 24 24 22 21 22 23 24 25 26 26 28 31 33 34 35 36 36 36 36 37 34 26 27
3 3 3 3 5 8 8 7 4 2 2 1 1 5 3 1 3 2 1 4 5 2 2 3 2 2 2 3 4 4 4 5 6 6 6 5 5 4 4 4 6 10 13 14 15 16 16 15 15 15 17 19 19 20 18 16 15 16 18 20 19 18 18 17 17 16 14 13 14 15 16 18 18 20 22 22 22 21 21 22 24 26 28 30 30 29 31 33 35 36 37 37 37 38 36 28 28
2 0 2 6 8 8 8 7 3 0 1 1 0 2 3 5 3 1 1 4 7 4 2 1 1 2 2 3 4 4 4 4 3 4 3 3 3 3 2 3 4 8 10 11 12 13 14 13 11 12 14 15 16 17 15 14 15 15 16 17 17 16 15 14 12 12 12 12 12 12 13 15 16 17 19 21 22 23 22 25 27 29 31 31 28 27 31 33 34 35 35 36 36 36 36 34 33
0 1 1 4 5 5 5 4 2 1 1 3 2 1 4 5 2 1 1 4 7 4 3 1 2 2 3 3 4 4 3 2 2 2 0 1 1 2 3 3 6 8 9 10 11 11 12 12 11 11 12 13 14 14 14 14 15 13 13 14 15 14 13 12 11 10 10 10 11 12 12 13 14 16 19 20 22 22 23 26 28 27 28 28 26 27 31 32 32 33 34 35 36 37 36 37 38
3 4 5 5 4 5 3 2 3 2 3 5 2 1 4 5 3 2 1 2 6 3 3 2 1 1 2 3 4 4 3 2 0 0 0 2 2 3 6 7 8 9 10 11 12 13 13 13 12 11 11 12 13 13 14 14 14 12 11 12 13 12 11 11 12 13 12 13 15 14 13 14 15 17 21 21 22 23 24 27 28 28 28 28 27 27 29 29 30 32 34 35 35 37 38 38 39
7 6 6 7 4 3 2 2 1 2 4 2 2 2 3 4 3 3 2 2 2 3 5 4 3 2 1 2 3 3 3 2 1 1 2 3 5 7 9 9 10 11 12 12 13 13 13 13 12 11 11 11 11 12 13 13 14 13 11 11 11 12 10 10 12 14 15 18 19 17 15 15 16 19 21 21 22 23 24 25 27 28 28 27 26 25 24 24 26 29 31 33 34 36 37 35 37
5 3 5 6 3 1 2 1 0 5 4 1 2 3 3 5 3 1 0 1 1 3 6 8 6 5 3 2 2 3 3 2 1 2 4 5 6 8 9 10 12 13 13 14 14 14 14 13 12 11 10 9 9 9 10 11 12 13 13 11 10 10 10 10 11 11 12 14 17 15 14 16 19 20 21 21 21 21 22 23 24 26 28 28 29 28 28 26 24 25 26 30 33 34 35 34 34
2 4 7 5 3 2 3 2 2 5 2 2 2 2 3 7 6 4 5 3 3 4 4 5 5 4 3 2 3 2 2 1 1 3 3 5 6 7 8 10 12 13 14 15 15 14 14 13 12 10 9 8 7 7 7 7 8 10 11 12 12 11 11 11 11 10 10 10 11 11 10 12 14 16 18 19 19 19 20 21 21 22 23 23 25 26 27 25 22 23 24 27 29 31 33 33 35
5 7 7 5 5 4 5 3 1 3 0 2 1 1 3 5 5 7 9 4 2 3 2 1 1 1 2 3 3 3 1 1 1 2 3 4 5 6 8 11 13 14 15 15 15 15 15 14 13 12 11 9 8 7 6 5 5 6 7 9 10 11 11 11 10 10 11 10 11 12 12 11 12 13 14 16 17 16 17 17 17 18 18 18 18 19 20 19 18 19 22 24 27 28 29 30 34
3 1 1 4 4 4 4 3 2 2 2 2 1 2 4 3 0 2 4 1 1 2 2 3 4 2 2 4 3 1 0 1 1 2 3 4 5 6 8 12 14 15 15 16 16 15 15 14 13 12 11 9 8 7 6 5 4 4 5 6 7 9 10 11 11 12 13 13 12 12 13 14 14 14 15 16 16 15 15 16 15 16 16 16 17 17 18 18 18 17 19 22 24 26 27 29 32
1 1 0 3 2 2 2 1 0 1 1 2 3 3 4 2 3 2 1 1 2 2 1 3 5 1 1 2 1 2 2 3 2 3 4 4 5 6 7 10 12 14 15 15 15 15 14 14 13 12 11 10 9 7 6 5 4 3 3 4 5 6 7 8 10 11 12 13 11 10 11 13 14 14 14 14 14 15 15 15 16 16 16 17 17 17 17 16 16 17 18 20 22 25 27 30 31
2 2 3 2 1 4 4 1 1 1 3 2 2 4 3 3 5 2 3 2 3 3 3 4 4 1 3 2 3 4 4 4 3 3 4 4 5 6 7 9 11 13 15 15 15 14 14 14 13 12 11 10 8 7 6 5 4 2 1 1 2 4 5 6 7 8 9 9 8 9 10 11 12 13 13 13 13 14 14 14 15 16 17 17 17 18 19 18 18 19 20 20 21 23 26 30 32
2 3 5 3 1 1 2 1 1 0 4 2 2 5 4 2 3 1 3 3 4 5 5 3 2 2 3 4 4 6 5 4 4 4 3 4 5 6 9 12 14 15 15 15 14 14 13 13 12 11 10 9 8 6 5 4 4 3 2 1 2 3 4 5 5 6 7 7 7 9 9 10 11 11 12 12 12 13 13 14 15 16 16 15 14 16 17 18 19 20 21 22 21 21 24 28 31
0 1 3 3 2 2 2 2 2 2 4 2 2 3 4 5 4 0 3 7 7 7 5 4 5 5 5 5 6 6 6 5 4 4 3 3 4 6 10 13 15 16 15 15 15 14 14 13 12 10 9 8 7 5 5 4 4 3 2 1 1 2 3 4 4 5 5 5 5 7 8 9 9 10 10 11 11 12 12 13 14 15 15 14 14 14 15 17 18 19 19 19 19 19 20 23 25
1 1 2 0 1 2 2 2 2 3 3 2 2 1 3 6 5 4 7 8 9 9 6 5 7 7 7 7 7 7 6 5 5 4 3 3 5 7 11 14 15 15 15 15 15 14 14 13 12 11 10 8 7 6 5 5 5 4 3 2 0 1 1 1 1 2 2 2 2 4 5 7 7 8 9 9 10 11 11 12 13 14 15 14 14 14 14 17 19 20 19 19 19 19 20 23 24
3 4 5 3 1 1 1 1 1 1 3 3 3 3 3 3 4 8 8 4 5 8 7 6 6 6 7 8 7 7 6 5 4 4 3 4 5 7 11 14 15 15 15 15 15 15 14 14 13 12 11 10 9 8 7 7 7 6 5 4 3 3 2 2 2 2 2 2 2 3 4 5 6 7 7 8 9 9 10 11 12 13 14 15 15 15 16 18 20 22 22 22 24 23 24 26 27
2 3 5 6 4 3 3 4 1 0 2 2 2 4 4 1 2 6 4 2 3 5 4 5 6 7 8 7 6 6 5 5 4 4 4 5 5 7 11 13 14 15 15 15 15 15 14 14 13 13 12 11 11 10 9 9 8 7 7 6 6 6 5 5 5 5 4 4 5 5 5 5 6 6 7 7 8 9 10 11 12 14 14 15 16 17 18 18 20 23 24 25 26 26 26 29 29
Wind_Direction
158 158 156 164 156 197 273 344 229 99 265 175 99 157 135 102 44 174 162 155 164 143 135 106 143 146 134 329 320 344 348 349 359 345 77 71 134 146 151 148 145 144 144 144 150 146 144 151 152 147 137 130 119 104 101 99 96 102 103 100 106 107 107 105 101 100 101 100 103 108 107 105 102 102 101 98 96 94 92 93 96 96 90 85 87 88 89 86 83 84 83 85 85 87 87 87 93
147 146 153 172 163 245 197 326 265 140 230 169 132 84 106 141 188 188 165 153 113 109 128 141 149 157 46 344 301 254 73 23 5 15 63 111 135 149 153 144 147 146 145 146 149 148 149 156 157 151 139 135 121 107 105 103 101 103 108 106 106 108 108 105 102 102 103 100 103 104 104 104 101 102 102 100 99 97 95 96 97 95 91 88 89 88 88 84 84 87 85 87 86 87 88 88 91
139 141 150 168 107 317 128 230 261 183 225 155 129 114 125 178 190 161 135 107 81 112 128 130 149 166 236 234 207 252 108 55 71 63 92 136 142 157 155 144 151 149 147 149 151 151 153 160 162 152 141 138 125 113 111 108 105 103 110 111 109 109 108 106 104 106 106 98 98 101 104 103 98 103 104 102 101 99 97 98 100 99 96 93 91 89 87 82 83 89 88 89 89 90 89 90 92
134 145 161 199 214 173 180 239 288 253 223 129 109 127 170 199 162 117 94 92 100 130 137 149 161 125 275 266 51 305 120 90 141 109 129 151 148 154 154 149 154 153 152 152 153 153 155 162 163 154 143 141 132 116 114 113 109 108 112 115 117 113 109 106 104 106 110 109 105 103 105 104 100 104 106 103 103 101 99 99 97 94 93 90 88 85 84 81 82 89 90 90 92 91 91 93 94
125 152 188 248 246 119 70 116 152 261 256 67 59 121 192 204 136 119 105 119 119 124 130 171 174 86 271 308 340 282 107 99 153 177 152 152 145 149 153 152 153 156 155 154 156 155 157 163 163 155 148 146 138 120 118 119 115 112 114 119 122 116 111 107 107 103 101 108 109 109 108 105 103 105 107 106 104 101 100 100 96 93 93 91 89 85 84 84 86 89 90 92 93 92 94 96 95
102 113 107 84 94 51 198 188 203 235 41 358 2 82 178 180 133 124 125 129 118 26 96 186 179 121 193 125 291 336 45 109 141 168 166 155 152 153 154 153 155 157 155 156 158 157 160 163 163 159 154 152 144 130 125 127 122 115 114 119 120 116 111 106 110 107 103 106 104 106 107 105 103 105 108 106 103 100 99 102 100 97 95 93 92 89 86 86 88 89 90 92 93 96 97 97 97
127 117 82 100 103 303 227 217 265 207 56 355 351 43 123 154 138 132 140 146 146 58 147 213 249 205 178 112 194 89 30 169 131 157 167 158 156 156 155 156 157 158 157 158 159 158 163 163 163 164 159 156 151 139 130 131 129 120 116 118 118 117 112 109 110 111 109 107 102 101 105 105 102 105 108 106 103 100 100 102 100 97 95 96 92 86 86 87 88 89 90 90 94 102 99 98 100
138 111 294 172 121 344 227 224 283 345 53 337 315 357 52 140 157 151 152 156 160 158 165 182 218 233 142 94 200 113 124 168 156 163 159 157 157 158 157 159 160 161 161 159 161 162 167 165 163 167 163 161 156 146 136 135 135 128 122 120 121 120 120 122 119 115 112 107 106 105 108 108 105 110 111 109 107 102 101 101 102 99 96 95 91 89 89 89 90 91 91 90 95 104 103 100 102
63 9 233 191 150 129 145 233 170 348 160 235 257 254 347 160 186 170 157 146 122 158 166 158 195 244 136 161 136 112 161 177 177 163 159 161 158 160 159 164 164 162 163 160 164 165 168 166 164 170 168 167 162 154 147 141 143 138 130 126 125 125 128 133 130 122 120 115 114 115 114 104 103 113 115 115 112 106 105 103 103 101 98 95 93 94 93 92 92 92 95 95 97 105 107 105 107
49 13 204 154 165 193 187 202 133 145 177 225 256 223 180 165 193 191 162 138 117 164 135 125 200 243 156 165 133 112 162 171 171 158 160 164 160 163 162 166 166 163 165 164 166 166 171 172 168 173 174 172 169 165 161 152 149 146 140 135 129 126 128 136 138 132 129 125 120 119 114 105 104 114 121 123 117 109 108 108 104 101 101 100 99 98 96 96 94 94 96 99 103 109 112 112 113
208 76 246 173 176 207 192 168 128 125 155 225 228 189 161 162 175 171 159 132 132 169 133 161 211 189 180 178 131 101 148 166 166 161 163 166 164 165 164 166 168 167 169 169 169 167 171 177 174 177 178 175 177 176 173 165 156 153 149 143 135 130 128 135 144 143 140 139 136 129 125 121 116 118 123 124 122 116 113 114 110 107 107 106 105 101 99 98 96 97 98 100 106 112 116 117 114
216 132 216 185 179 207 149 136 121 72 162 177 151 141 154 164 172 171 176 155 157 190 169 186 212 159 181 180 129 113 153 170 165 167 166 166 167 166 165 166 168 171 174 173 172 170 172 178 179 182 182 179 182 184 185 179 164 159 156 151 144 138 135 136 144 148 149 151 152 148 142 133 124 126 129 128 129 125 117 116 113 111 112 109 108 103 98 97 98 99 98 102 105 110 115 116 112
229 180 194 164 97 63 126 149 146 271 181 145 121 128 157 171 181 177 171 157 169 192 179 171 161 236 208 119 111 135 165 169 167 169 166 168 169 168 167 166 168 173 178 176 176 176 174 178 181 184 188 186 188 189 191 190 178 167 162 160 157 152 146 142 142 145 149 154 161 165 158 143 135 138 137 131 131 132 123 120 116 113 113 109 108 104 101 100 103 99 97 101 105 110 113 115 117
214 217 211 139 68 174 161 285 166 225 155 117 106 133 168 189 186 158 169 190 186 170 82 121 198 245 229 144 153 169 165 162 167 166 166 170 169 170 169 166 169 173 179 180 183 181 178 182 182 185 190 190 193 195 196 197 192 178 171 171 170 168 160 155 150 147 148 146 150 157 159 153 146 144 141 136 135 141 136 132 126 118 115 117 115 111 110 107 106 103 101 105 111 114 116 119 122
181 174 64 123 137 185 191 334 166 237 130 129 130 146 171 197 40 168 190 218 168 75 62 152 256 271 267 206 151 141 154 158 166 162 164 171 169 172 170 170 171 174 179 181 188 188 185 187 185 186 189 189 193 197 198 200 200 189 180 180 180 182 177 172 164 159 153 141 133 140 149 152 151 146 143 143 145 151 147 142 136 125 128 142 135 123 120 112 109 111 112 116 123 127 126 126 124
190 164 111 132 155 207 185 167 207 223 121 129 128 162 167 135 152 202 21 316 99 91 212 171 172 302 334 329 51 84 140 159 166 159 162 168 168 172 171 175 177 178 182 183 190 191 190 190 189 190 189 190 192 195 197 199 204 198 189 189 189 191 189 186 182 175 162 147 135 135 143 149 155 150 144 148 151 155 152 145 142 136 138 152 142 127 125 118 116 119 123 130 140 147 144 139 135
231 201 162 152 169 208 175 173 195 149 112 136 155 184 172 141 164 253 72 289 202 128 217 153 124 289 339 31 52 85 139 159 165 158 161 167 168 174 177 182 183 185 187 187 191 192 194 194 194 194 191 191 193 194 195 198 206 204 196 198 198 199 199 197 196 191 183 170 151 140 144 151 158 155 149 151 154 158 159 157 157 153 148 149 145 132 130 128 124 124 132 140 152 164 167 167 163
222 197 172 172 170 168 171 173 182 74 119 156 173 193 183 151 159 172 170 183 188 188 196 180 198 225 180 63 60 146 152 160 166 164 166 171 173 178 183 188 189 191 190 190 194 194 196 197 198 198 195 194 195 196 196 200 207 204 199 203 205 204 205 204 203 203 200 193 175 157 156 163 165 166 163 155 159 165 166 173 175 175 172 160 157 143 136 134 130 134 138 143 160 177 183 188 188
202 159 184 186 160 124 162 163 162 150 92 140 167 192 197 157 153 169 198 169 160 227 207 190 225 210 174 168 157 158 160 167 172 173 174 177 181 183 187 191 192 193 193 193 194 195 197 199 201 201 201 197 197 200 199 202 205 203 198 202 208 205 208 207 202 203 201 201 197 180 173 178 172 176 180 164 167 175 178 184 187 196 202 183 176 165 154 150 142 143 141 143 161 180 186 193 195
191 185 200 169 147 117 163 177 150 132 72 139 161 169 208 156 141 169 193 164 187 233 222 196 222 220 188 160 156 166 169 176 180 181 181 184 187 188 190 191 193 195 194 194 194 196 198 200 201 203 205 201 200 203 202 203 203 204 201 203 207 203 207 206 200 201 199 202 205 196 191 192 182 184 192 176 172 180 186 191 195 202 210 205 189 169 175 178 157 143 144 149 165 183 189 193 192
160 199 211 135 148 144 160 188 126 119 74 151 146 153 189 152 165 180 166 180 219 235 235 227 231 218 179 153 157 172 175 183 187 190 190 191 193 195 198 197 197 197 195 195 196 198 198 200 201 203 205 203 204 206 205 205 203 205 205 205 206 202 204 205 205 205 202 204 207 207 207 202 190 190 195 186 177 182 189 190 195 198 202 205 186 166 182 192 184 159 157 165 178 193 197 197 191
154 200 341 102 163 154 147 182 135 132 107 139 149 159 161 131 179 190 179 206 218 177 227 247 261 258 157 156 158 171 181 189 192 197 198 198 199 200 202 202 202 202 202 201 200 201 200 201 201 202 205 205 206 207 209 210 207 207 209 210 208 206 207 208 208 208 207 206 205 209 214 212 202 198 198 194 189 187 191 188 190 192 193 199 190 186 194 199 203 190 178 182 194 204 205 207 201
186 178 17 95 244 131 140 161 157 160 147 155 160 151 133 153 188 162 212 225 129 78 66 29 348 13 132 149 157 173 186 193 196 200 201 200 202 203 203 202 203 205 207 207 206 206 205 205 204 203 205 206 207 208 212 215 213 211 214 216 211 210 212 211 211 211 211 208 207 209 213 217 211 205 204 202 200 196 197 198 199 200 199 207 207 206 218 224 214 203 197 199 209 216 216 218 217
243 162 135 133 355 60 128 145 161 189 164 147 139 142 155 189 187 91 231 234 153 104 79 36 43 104 136 153 168 181 189 196 201 203 204 205 205 207 206 205 207 208 210 211 208 210 211 210 208 207 207 208 209 209 212 217 218 215 216 220 217 216 217 214 212 212 214 212 212 210 212 219 218 213 210 208 207 204 205 208 211 214 213 221 226 227 237 237 223 214 211 212 217 225 228 226 226
251 156 139 143 53 72 89 115 154 184 153 124 144 158 158 205 141 172 236 233 149 111 83 88 116 128 163 179 182 185 191 201 206 207 208 211 212 212 213 212 212 212 213 212 209 213 214 212 210 210 211 212 211 210 212 216 220 218 218 223 224 223 221 219 217 213 215 215 216 214 212 219 220 220 217 214 212 209 212 215 217 221 224 230 234 237 242 241 233 225 220 219 222 228 232 232 232
189 126 135 138 108 101 118 119 145 176 138 163 166 143 99 86 9 251 238 228 72 79 121 136 152 164 187 191 190 189 195 203 204 206 209 212 214 215 215 214 215 215 214 213 212 214 215 214 212 211 212 213 213 211 213 216 219 221 220 223 227 228 226 224 223 218 215 216 218 218 216 219 222 223 223 222 221 218 218 221 221 225 231 236 237 240 244 244 239 232 227 226 228 231 233 235 234
101 112 108 110 112 113 154 131 139 166 112 241 181 131 105 131 253 248 183 50 7 208 157 152 186 199 198 191 196 196 202 206 202 204 207 211 215 216 215 214 217 217 215 214 213 214 215 216 216 215 214 213 216 217 219 219 219 223 223 223 227 231 231 228 226 222 218 219 219 217 217 219 221 225 227 228 229 227 225 225 227 231 236 240 239 240 244 245 242 238 233 231 232 233 236 239 234
121 128 104 83 103 108 82 123 138 207 119 297 209 127 109 128 226 237 108 55 5 171 171 168 199 211 203 196 198 201 210 208 199 204 208 210 212 212 212 212 214 215 215 214 211 211 213 215 217 218 216 214 217 221 224 225 223 224 225 224 224 229 232 231 230 228 224 222 220 219 221 221 221 225 228 232 234 233 232 231 231 236 240 243 244 244 245 246 246 244 240 238 238 239 242 245 240
130 144 120 108 143 116 54 102 175 282 139 276 253 162 199 191 214 198 92 0 17 339 211 184 203 209 204 204 206 209 211 202 198 210 214 214 213 211 213 212 211 212 215 214 210 211 212 214 217 217 217 216 217 220 225 228 227 227 228 228 224 226 230 232 232 232 230 228 224 223 222 222 225 228 230 233 236 236 238 238 237 240 242 245 247 247 247 245 245 246 245 243 243 245 246 247 244
141 176 136 137 182 164 37 1 281 243 141 283 255 231 225 203 216 143 77 315 306 256 224 195 201 203 213 211 215 219 212 206 208 216 217 216 216 214 216 214 210 210 211 209 209 211 210 212 214 216 219 219 220 222 225 229 230 230 230 231 230 228 231 234 234 232 233 234 234 238 236 232 232 233 232 234 236 237 239 241 240 241 242 245 248 248 246 244 244 245 244 242 242 244 244 245 243
135 145 211 160 195 177 68 17 284 192 157 294 235 237 248 187 193 110 60 326 240 250 230 204 203 204 221 214 223 228 216 214 219 223 221 219 220 220 221 218 214 213 212 211 212 210 208 210 210 213 216 218 221 223 224 226 229 231 231 233 235 234 234 238 240 237 237 237 238 246 248 245 242 240 239 239 239 239 240 243 244 243 243 243 246 249 246 243 244 244 242 240 240 242 241 243 242
118 164 186 183 216 182 88 54 322 221 150 276 228 233 252 215 153 103 54 105 189 244 245 240 240 227 224 219 229 234 229 224 226 231 229 226 228 231 231 228 224 223 223 221 217 214 212 211 210 212 215 216 220 222 223 224 225 228 229 231 234 237 238 240 241 238 237 238 240 245 247 248 250 251 252 249 246 246 245 247 248 249 247 245 245 247 246 243 243 243 242 240 239 241 239 240 241
185 229 179 169 202 184 155 121 359 329 142 220 242 258 256 203 134 114 99 147 146 248 255 253 247 239 230 222 227 235 240 231 230 234 231 231 233 237 238 236 234 233 232 229 223 222 220 216 215 215 216 218 221 225 228 229 229 230 231 231 231 234 238 241 243 240 236 236 237 241 244 247 249 249 249 247 247 250 250 250 250 249 246 245 245 244 243 241 242 243 243 242 239 238 238 240 240
175 245 162 180 210 185 182 151 82 337 231 214 223 258 253 188 153 171 187 215 271 266 259 257 245 238 229 222 230 232 237 239 237 233 231 236 240 242 243 242 241 238 238 235 230 229 226 220 220 222 221 218 220 224 228 231 232 234 235 236 236 235 236 238 239 239 239 238 236 237 239 243 245 244 245 244 243 243 246 248 247 245 243 244 244 243 242 241 242 243 241 241 238 235 236 239 239
180 188 178 168 220 226 216 155 138 189 217 220 207 240 254 249 236 230 197 185 258 268 263 269 260 252 236 227 236 230 233 243 241 234 238 244 244 245 245 245 245 242 241 239 235 232 229 225 224 226 224 219 219 222 225 227 228 230 231 232 237 238 238 238 239 240 241 240 239 237 239 241 242 246 247 245 242 240 242 248 247 244 244 246 244 243 243 242 243 241 237 238 240 238 237 238 239
187 182 174 153 168 219 242 92 69 204 202 217 218 231 254 256 253 257 226 163 233 266 267 267 259 257 248 234 234 227 233 241 240 246 249 249 247 247 247 246 247 245 244 242 238 234 232 229 226 225 224 219 219 221 222 224 225 227 228 230 233 235 236 238 241 243 241 238 236 236 241 244 243 246 247 245 243 240 242 250 249 245 244 243 241 242 245 243 241 239 236 237 240 239 238 237 238
173 160 168 167 169 181 161 100 55 300 218 216 228 247 263 264 261 263 257 199 237 252 254 256 250 250 247 239 240 230 232 238 249 261 255 249 248 247 245 244 243 243 242 239 237 236 233 230 227 226 224 217 217 219 219 220 221 224 226 230 234 235 238 238 238 238 237 237 236 237 242 244 243 244 244 242 240 240 244 248 247 244 243 240 240 244 247 245 242 240 239 239 239 238 237 237 238
158 174 182 193 212 161 98 128 85 32 236 209 204 256 258 258 261 261 254 247 250 241 236 243 243 243 243 242 246 242 242 248 247 255 252 245 246 245 243 242 240 239 238 236 234 234 232 229 229 229 226 219 216 217 218 220 221 222 223 227 232 236 239 239 239 239 238 240 242 245 247 245 243 245 244 240 237 237 242 243 241 241 240 240 244 246 245 245 244 242 240 238 237 236 237 239 237
150 176 180 191 201 139 117 161 115 62 244 210 146 258 262 255 259 259 243 241 249 245 243 252 252 250 247 244 247 253 262 260 244 248 249 244 245 246 245 244 242 240 237 237 235 232 230 229 229 228 226 225 221 216 217 219 221 221 223 228 230 234 236 237 239 239 239 240 241 243 244 243 245 249 248 243 241 242 243 243 242 240 238 239 243 244 242 243 242 241 239 235 233 233 235 239 238
156 160 178 184 162 169 196 170 157 46 305 291 245 268 272 256 254 253 236 238 262 282 276 263 254 253 257 263 272 271 266 266 259 253 248 240 243 247 246 245 242 239 236 235 233 229 229 229 229 226 226 228 225 222 219 217 220 222 223 227 229 231 234 237 241 241 238 238 238 237 237 240 246 250 250 249 249 250 250 248 246 244 239 236 241 245 244 244 242 240 239 235 230 228 230 237 240
208 205 192 161 168 204 322 124 145 168 180 295 285 269 268 245 245 247 218 196 261 273 273 253 236 244 262 278 277 255 251 260 262 258 248 236 243 246 245 244 240 234 233 233 231 229 228 228 229 227 228 230 227 226 222 214 215 219 220 224 228 233 237 239 241 242 239 238 239 239 240 244 247 249 246 246 248 248 247 246 247 246 239 234 244 253 250 247 245 240 238 235 231 229 230 235 239
211 222 213 203 181 166 111 133 156 191 194 116 319 262 252 129 239 241 180 347 254 207 265 263 248 242 260 270 270 253 245 250 252 258 260 251 255 255 250 247 236 227 227 229 228 227 226 225 226 225 225 227 226 226 221 210 209 214 215 217 221 227 233 235 234 236 239 240 240 241 244 246 244 243 242 243 247 248 247 247 248 245 241 243 254 260 254 246 242 240 239 238 237 236 233 231 235
205 214 187 165 159 139 140 165 182 219 200 79 325 258 252 300 261 223 52 312 280 248 239 273 298 308 286 280 286 282 265 253 247 257 262 256 253 246 232 222 215 212 214 218 218 217 216 215 216 215 218 221 221 221 215 205 205 209 212 214 217 221 227 233 235 237 241 243 243 242 244 245 242 242 243 245 248 249 249 251 251 251 253 255 258 260 256 249 243 241 241 242 242 240 234 228 233
192 198 135 141 145 145 155 169 184 311 101 128 314 291 274 273 262 116 37 282 267 242 204 277 351 352 340 325 314 307 291 274 256 254 246 231 227 202 184 176 178 183 190 198 201 200 201 200 200 201 205 211 213 211 204 200 204 207 210 215 219 224 230 237 242 242 242 243 245 245 245 247 247 247 248 250 252 252 252 253 254 253 252 250 252 259 259 252 244 241 242 244 242 238 233 231 234
172 26 101 126 129 130 145 153 129 48 267 215 164 43 266 258 241 93 30 272 254 220 153 110 54 34 2 358 352 341 329 299 256 259 202 132 147 157 144 134 141 148 154 165 171 174 178 180 182 185 190 198 204 203 199 201 205 206 209 214 220 227 232 239 242 241 242 243 246 248 249 250 253 257 259 258 258 257 255 255 256 255 252 252 257 265 261 250 242 241 244 246 243 239 238 237 237
134 145 107 87 79 76 92 125 114 106 251 227 147 85 259 258 241 185 97 264 249 208 127 114 92 54 352 10 10 6 19 21 343 287 25 85 93 120 126 121 123 129 135 143 150 156 161 164 166 171 179 188 194 198 200 204 206 206 211 216 222 229 235 240 244 246 247 250 253 254 254 254 257 261 262 260 258 256 253 253 253 254 255 255 257 260 257 249 247 248 247 248 247 244 241 240 238
138 150 112 93 74 57 64 38 84 191 243 223 82 6 276 267 246 203 197 234 229 156 135 145 139 120 95 48 21 17 26 28 48 85 99 94 97 112 117 117 117 120 124 128 134 140 144 150 154 161 172 179 185 192 198 205 209 212 218 221 227 234 240 245 249 252 254 256 258 257 256 257 259 261 262 261 259 257 255 252 251 252 253 253 252 254 255 253 253 253 249 247 246 243 241 240 241
138 161 134 115 85 85 122 62 185 225 230 114 36 341 254 240 238 175 242 271 236 183 152 145 140 122 96 49 21 19 12 8 56 93 104 106 109 113 113 113 116 117 118 121 125 129 133 138 144 151 158 164 172 182 192 204 212 219 226 230 235 240 243 247 251 255 256 257 258 256 255 259 263 265 265 265 264 263 261 257 254 252 253 253 253 255 258 260 261 259 253 248 246 244 244 242 241
182 163 156 150 139 164 197 191 206 234 238 59 1 311 238 244 261 279 272 250 233 232 174 139 139 126 91 32 8 9 5 7 68 92 100 107 110 112 114 115 115 115 116 119 121 123 126 129 131 133 136 140 149 162 179 197 210 221 229 234 240 244 247 248 253 257 256 255 255 252 251 258 266 268 268 270 271 270 267 264 262 259 258 257 256 255 256 258 259 259 257 254 251 250 249 247 246
187 168 167 172 155 172 202 186 230 260 253 53 318 291 255 258 269 261 252 230 176 237 247 226 245 286 4 344 332 333 347 24 75 93 97 101 104 103 106 111 113 114 117 120 123 125 126 127 129 130 131 134 138 147 161 178 200 216 227 236 242 249 254 255 257 259 257 256 257 258 259 262 263 266 272 278 279 277 273 271 269 267 266 265 262 260 259 256 253 253 254 255 254 253 253 253 253
185 165 160 186 175 190 203 182 213 227 105 93 196 232 228 220 79 246 249 316 53 250 274 287 272 264 311 303 292 287 137 117 102 104 102 96 101 103 106 111 113 115 117 119 121 123 124 125 126 126 126 128 129 134 143 152 178 203 219 233 241 248 254 257 261 264 266 267 268 270 271 272 272 273 277 281 281 278 276 274 273 271 269 268 265 263 263 260 255 252 251 251 253 255 256 257 256
180 11 69 214 197 138 121 72 136 103 75 159 188 243 249 258 286 257 210 287 256 231 240 264 262 203 153 265 199 141 137 127 122 123 114 105 111 114 116 117 114 113 113 113 114 115 116 116 117 117 116 116 117 120 126 137 157 175 201 223 237 247 252 258 263 270 275 273 271 272 275 277 278 279 280 282 282 280 278 276 275 273 270 268 265 263 263 261 258 256 254 252 253 256 257 257 256
150 164 182 202 46 103 115 109 63 26 259 200 166 249 264 280 276 246 128 203 204 179 195 229 250 179 140 187 159 141 142 134 128 123 118 123 129 122 116 114 110 108 106 106 107 109 112 114 114 116 115 115 116 117 120 123 128 132 151 245 269 275 275 277 278 279 280 277 276 278 280 283 285 287 288 286 284 282 280 277 274 273 272 269 267 267 266 264 263 261 260 259 258 257 257 258 258
142 178 171 142 55 70 121 169 109 161 247 218 165 240 252 230 248 85 116 186 192 185 191 193 216 184 153 166 160 147 140 132 121 115 121 130 126 114 106 102 100 102 103 101 103 105 110 115 116 118 118 119 118 117 119 115 104 97 76 2 310 296 285 282 281 282 282 283 290 291 289 292 293 292 291 286 284 281 277 276 274 273 273 269 268 269 269 268 266 265 264 263 262 260 258 259 259
330 196 146 127 196 201 175 186 175 194 231 243 204 240 263 221 215 131 163 192 200 198 189 183 190 179 163 163 159 148 138 138 137 136 142 126 106 98 98 97 96 99 100 98 99 99 102 105 108 111 108 106 106 103 103 99 98 101 93 74 277 280 279 280 281 285 291 296 301 302 299 297 294 291 288 286 286 284 282 281 278 277 276 272 271 270 270 271 270 268 267 266 264 261 258 259 259
43 131 137 356 278 210 186 165 179 211 213 236 227 208 237 218 208 215 206 198 198 193 183 190 189 176 168 163 160 156 149 151 152 151 142 110 94 92 96 99 98 99 100 99 99 96 95 96 96 95 91 86 86 84 86 88 88 89 86 89 80 321 302 300 291 294 318 327 318 311 304 301 300 298 296 293 292 291 289 287 284 283 281 278 277 275 273 275 274 271 269 268 268 265 262 263 264
151 166 170 182 158 52 248 166 93 241 207 211 239 240 233 207 195 212 212 193 190 190 185 188 183 174 169 160 157 153 149 153 152 145 130 109 98 91 94 99 101 101 101 100 98 95 93 93 92 90 89 87 85 82 84 84 82 83 81 79 70 58 58 53 55 56 43 44 37 357 327 319 316 312 307 302 301 299 295 292 289 287 285 284 283 281 280 278 275 274 272 271 271 270 268 268 269
162 187 185 183 158 136 191 202 153 326 244 207 230 264 256 172 181 216 203 135 191 205 200 181 168 173 167 151 149 144 141 152 145 130 116 101 95 92 95 99 100 100 99 96 97 95 92 91 90 90 89 86 85 83 83 81 82 83 80 76 71 68 66 61 61 59 53 55 50 28 3 349 341 335 327 319 314 309 304 300 297 293 293 293 290 288 286 281 278 278 278 276 275 273 272 272 271